                ,  0.690,  0.890,  1.090,  1.290,  1.490,  1.690,  1.890,  2.090,  2.290,  2.490,  2.690,  2.890,  3.090,  3.290,  3.490,  3.690,  3.890,  4.090,  4.290,  4.490,  4.690,  4.890,  5.090,  5.290,  5.490,  5.690,  5.890,  6.090,  6.290,  6.490,  6.690,  6.890,  7.090,  7.290,  7.490,  7.690,  7.890,  8.090,  8.290,  8.490,  8.690,  8.890,  9.090,  9.290,  9.490,  9.690,  9.890
2000/01/12 00:00,  999.0,  999.0,  999.0,  999.0,  999.0,  999.0,  999.0,  999.0,  999.0,  999.0,  999.0,  999.0,  999.0,  999.0,  999.0,  999.0,  999.0,  999.0,  999.0,  999.0,  999.0,  999.0,  999.0,  999.0,  999.0,  999.0,  999.0,  999.0,  999.0,  999.0,  999.0,  999.0,  999.0,  999.0,  999.0,  999.0,  999.0,  999.0,  999.0,  999.0,  999.0,  999.0,  999.0,  999.0,  999.0,  999.0,  999.0
2000/01/12 00:10,  999.0,  999.0,  999.0,  999.0,  999.0,  999.0,  999.0,  999.0,  999.0,  999.0,  999.0,  999.0,  999.0,  999.0,  999.0,  999.0,    0.2,    0.1,  999.0,   -0.8,   -1.0,   -1.0,   -0.9,   -0.9,   -0.9,   -0.9,   -0.9,   -0.8,   -0.8,   -0.8,   -0.7,   -0.7,   -0.7,   -0.6,   -0.5,   -0.5,  999.0,  999.0,  999.0,  999.0,  999.0,  999.0,  999.0,  999.0,  999.0,  999.0,  999.0
2000/01/12 00:20,  999.0,   -0.1,   -0.1,  999.0,    0.0,   -0.0,    0.1,  999.0,  999.0,  999.0,  999.0,  999.0,  999.0,  999.0,  999.0,   -0.0,    0.2,    0.4,   -0.4,   -1.0,   -1.0,   -1.0,   -1.0,   -1.0,   -0.9,   -0.9,   -0.9,   -0.9,   -0.8,   -0.8,   -0.8,   -0.7,   -0.6,   -0.6,   -0.7,  999.0,  999.0,  999.0,  999.0,  999.0,  999.0,  999.0,  999.0,  999.0,  999.0,  999.0,  999.0
2000/01/12 00:30,  999.0,   -0.1,  999.0,  999.0,  999.0,   -0.1,  999.0,  999.0,  999.0,  999.0,  999.0,  999.0,  999.0,  999.0,  999.0,   -0.2,    0.1,    0.2,   -1.2,   -1.3,   -1.1,   -1.0,   -1.0,   -1.0,   -1.0,   -1.0,   -1.0,   -0.9,   -0.9,   -0.9,   -0.8,   -0.8,   -0.7,   -0.7,   -0.5,  999.0,  999.0,  999.0,  999.0,  999.0,  999.0,  999.0,  999.0,  999.0,  999.0,  999.0,  999.0
2000/01/12 00:40,   -0.2,  999.0,  999.0,  999.0,  999.0,    0.0,  999.0,  999.0,  999.0,  999.0,  999.0,  999.0,  999.0,  999.0,  999.0,    0.1,    0.2,    0.4,   -0.1,   -0.7,   -1.0,   -1.0,   -0.9,   -0.9,   -0.9,   -0.9,   -0.8,   -0.9,   -0.9,   -0.8,   -0.8,   -0.7,   -0.7,   -0.6,   -0.5,  999.0,  999.0,  999.0,  999.0,  999.0,  999.0,  999.0,  999.0,  999.0,  999.0,  999.0,  999.0
2000/01/12 00:50,   -0.1,  999.0,    0.0,  999.0,    0.0,  999.0,  999.0,  999.0,  999.0,  999.0,  999.0,  999.0,  999.0,  999.0,  999.0,   -0.0,    0.1,    0.2,   -0.4,   -1.1,   -1.0,   -1.0,   -1.0,   -1.0,   -1.1,   -1.0,   -1.0,   -1.0,   -0.9,   -0.9,   -0.9,   -0.8,   -0.7,   -0.6,   -0.5,  999.0,  999.0,  999.0,  999.0,  999.0,  999.0,  999.0,  999.0,  999.0,  999.0,  999.0,  999.0
2000/01/12 01:00,  999.0,   -0.1,  999.0,  999.0,  999.0,  999.0,  999.0,  999.0,  999.0,  999.0,  999.0,  999.0,  999.0,  999.0,  999.0,    0.3,    0.1,   -0.0,  999.0,   -1.0,   -1.0,   -1.0,   -0.9,   -0.9,   -0.8,   -0.8,   -0.8,   -0.7,   -0.7,   -0.7,   -0.7,   -0.6,   -0.5,   -0.5,   -0.4,   -0.4,   -0.6,  999.0,  999.0,  999.0,  999.0,  999.0,  999.0,  999.0,  999.0,  999.0,  999.0
2000/01/12 01:10,  999.0,  999.0,  999.0,  999.0,  999.0,  999.0,  999.0,  999.0,  999.0,  999.0,  999.0,  999.0,  999.0,  999.0,  999.0,    0.0,    0.2,   -0.2,   -1.3,   -1.2,   -0.9,   -0.9,   -0.8,   -0.8,   -0.8,   -0.7,   -0.7,   -0.7,   -0.7,   -0.6,   -0.6,   -0.5,   -0.3,   -0.5,   -0.4,   -0.3,  999.0,  999.0,  999.0,  999.0,  999.0,  999.0,  999.0,  999.0,  999.0,  999.0,  999.0
2000/01/12 01:20,  999.0,    0.1,    0.1,   -0.1,  999.0,  999.0,  999.0,  999.0,  999.0,    0.0,  999.0,  999.0,  999.0,  999.0,  999.0,    0.0,    0.2,   -0.2,   -0.8,   -1.2,   -0.9,   -0.7,   -0.8,   -0.7,   -0.7,   -0.7,   -0.7,   -0.6,   -0.6,   -0.6,   -0.5,   -0.5,   -0.5,   -0.5,   -0.5,   -0.4,   -0.4,   -0.5,   -0.5,  999.0,  999.0,  999.0,  999.0,  999.0,  999.0,  999.0,  999.0
2000/01/12 01:30,    0.1,    0.2,  999.0,    0.2,    0.0,  999.0,  999.0,  999.0,  999.0,    0.1,  999.0,  999.0,  999.0,  999.0,    0.1,    0.3,    0.3,   -0.0,   -0.5,   -0.9,   -0.9,   -0.9,   -0.9,   -0.8,   -0.8,   -0.8,   -0.8,   -0.8,   -0.7,   -0.6,   -0.6,   -0.6,   -0.6,   -0.5,   -0.5,   -0.4,   -0.4,   -0.3,   -0.4,   -0.4,   -0.5,   -0.4,  999.0,  999.0,  999.0,  999.0,  999.0
2000/01/12 01:40,    0.1,    0.0,   -0.1,   -0.1,   -0.1,  999.0,  999.0,  999.0,  999.0,    0.0,    0.1,   -0.0,  999.0,    0.1,    0.2,    0.4,  999.0,  999.0,   -0.7,   -1.0,   -1.0,   -0.9,   -0.9,   -0.9,   -0.9,   -0.8,   -0.8,   -0.7,   -0.7,   -0.7,   -0.6,   -0.6,   -0.5,   -0.4,   -0.4,   -0.3,   -0.5,   -0.4,   -0.5,   -0.4,   -0.5,   -0.4,   -0.4,   -0.4,   -0.3,  999.0,  999.0
2000/01/12 01:50,   -0.1,   -0.0,  999.0,    0.0,    0.0,  999.0,  999.0,  999.0,  999.0,  999.0,  999.0,    0.0,    0.1,  999.0,    0.3,    0.5,    0.3,   -0.2,   -0.9,   -1.0,   -0.9,   -1.0,   -0.9,   -0.9,   -0.8,   -0.8,   -0.7,   -0.7,   -0.7,   -0.7,   -0.7,   -0.6,   -0.5,   -0.6,   -0.5,   -0.5,   -0.5,   -0.4,   -0.4,   -0.3,   -0.5,  999.0,  999.0,  999.0,  999.0,  999.0,  999.0
2000/01/12 02:00,  999.0,    0.1,  999.0,   -0.0,    0.1,  999.0,  999.0,  999.0,  999.0,  999.0,  999.0,  999.0,  999.0,  999.0,    0.4,    0.4,    0.6,    0.4,   -0.8,   -0.9,   -0.8,   -0.8,   -0.8,   -0.8,   -0.8,   -0.8,   -0.8,   -0.7,   -0.8,   -0.7,   -0.7,   -0.7,   -0.6,   -0.6,   -0.5,   -0.5,   -0.5,   -0.3,   -0.2,   -0.6,  999.0,  999.0,  999.0,  999.0,  999.0,  999.0,  999.0
2000/01/12 02:10,  999.0,    0.3,    0.3,    0.4,    0.1,  999.0,  999.0,  999.0,  999.0,  999.0,  999.0,  999.0,    0.1,    0.3,    0.5,    0.7,    0.8,    0.4,   -0.7,   -1.0,   -0.9,   -0.9,   -0.9,   -0.9,   -0.9,   -0.8,   -0.8,   -0.8,   -0.7,   -0.6,   -0.6,   -0.5,   -0.5,   -0.5,   -0.5,   -0.4,   -0.5,   -0.5,   -0.4,   -0.4,  999.0,  999.0,  999.0,  999.0,  999.0,  999.0,  999.0
2000/01/12 02:20,    0.0,  999.0,   -0.1,  999.0,   -0.0,  999.0,  999.0,  999.0,  999.0,    0.2,  999.0,  999.0,  999.0,   -0.1,    0.2,  999.0,   -0.0,   -0.6,   -1.0,   -1.0,   -1.0,   -1.0,   -1.0,   -1.0,   -0.9,   -0.9,   -0.8,   -0.7,   -0.7,   -0.6,   -0.6,   -0.6,   -0.6,   -0.6,   -0.5,   -0.5,   -0.5,   -0.5,   -0.6,  999.0,  999.0,  999.0,  999.0,  999.0,  999.0,  999.0,  999.0
2000/01/12 02:30,   -0.1,    0.0,   -0.1,  999.0,   -0.1,   -0.1,  999.0,  999.0,  999.0,  999.0,  999.0,  999.0,  999.0,    0.0,  999.0,  999.0,   -1.7,   -1.4,   -1.1,   -1.0,   -1.0,   -0.9,   -0.9,   -0.9,   -0.9,   -0.9,   -0.8,   -0.8,   -0.8,   -0.7,   -0.7,   -0.7,   -0.6,   -0.6,   -0.6,   -0.7,   -0.4,   -0.3,  999.0,   -0.2,  999.0,  999.0,  999.0,  999.0,  999.0,  999.0,  999.0
2000/01/12 02:40,  999.0,    0.1,    0.0,  999.0,   -0.0,   -0.0,  999.0,  999.0,  999.0,  999.0,  999.0,    0.3,    0.1,   -0.0,   -0.2,   -1.2,   -0.9,   -0.8,   -1.1,   -1.1,   -1.0,   -1.0,   -1.0,   -1.0,   -0.9,   -0.8,   -0.8,   -0.8,   -0.8,   -0.7,   -0.7,   -0.7,   -0.7,   -0.6,   -0.6,   -0.6,   -0.6,   -0.5,   -0.5,   -0.7,   -0.6,  999.0,  999.0,  999.0,  999.0,  999.0,  999.0
2000/01/12 02:50,    0.3,  999.0,    0.0,  999.0,  999.0,  999.0,   -0.1,  999.0,  999.0,   -0.2,    0.2,  999.0,   -0.1,   -0.3,   -0.6,   -1.1,   -1.1,   -1.1,   -1.2,   -1.1,   -1.0,   -1.0,   -1.1,   -1.1,   -1.0,   -0.9,   -0.9,   -0.8,   -0.7,   -0.7,   -0.6,   -0.6,   -0.6,   -0.6,   -0.7,   -0.6,   -0.6,   -0.5,   -0.5,  999.0,  999.0,  999.0,  999.0,  999.0,  999.0,  999.0,  999.0
2000/01/12 03:00,   -0.1,   -0.1,   -0.0,    0.0,   -0.0,    0.0,    0.1,  999.0,  999.0,  999.0,    0.1,  999.0,    0.3,   -0.2,   -1.9,   -1.8,   -1.3,   -1.4,   -1.3,   -1.3,   -1.3,   -1.3,   -1.2,   -1.2,   -1.2,   -1.1,   -1.1,   -1.0,   -1.0,   -0.9,   -0.9,   -0.8,   -0.8,   -0.8,   -0.8,   -0.6,   -0.7,   -0.6,   -0.5,  999.0,  999.0,   -0.7,  999.0,  999.0,  999.0,  999.0,  999.0
2000/01/12 03:10,   -0.4,   -0.6,   -0.5,    0.1,    0.0,   -0.1,   -0.5,   -0.0,  999.0,    0.0,   -0.1,   -0.2,   -1.0,   -2.2,   -2.5,   -1.6,  999.0,   -1.3,   -1.2,   -1.1,   -1.3,   -1.2,   -1.2,   -1.1,   -1.1,   -1.0,   -1.0,   -0.9,   -0.9,   -0.9,   -0.8,   -0.8,   -0.8,   -0.8,   -0.8,   -0.7,   -0.6,   -0.5,   -0.4,   -0.4,   -0.4,   -0.4,   -0.3,   -0.4,  999.0,  999.0,  999.0
2000/01/12 03:20,   -0.1,    0.2,    0.1,   -0.1,   -0.1,  999.0,   -0.1,  999.0,  999.0,    0.4,    0.2,    0.6,    0.1,  999.0,  999.0,  999.0,   -1.0,   -1.1,   -1.3,   -1.2,   -1.2,   -1.2,   -1.1,   -1.1,   -1.1,   -1.1,   -1.0,   -0.9,   -0.9,   -0.9,   -0.9,   -0.8,   -0.8,   -0.7,   -0.7,   -0.6,   -0.4,   -0.3,   -0.3,   -0.4,  999.0,  999.0,  999.0,  999.0,  999.0,  999.0,  999.0
2000/01/12 03:30,    0.0,   -0.0,    0.2,  999.0,  999.0,    0.1,    0.1,  999.0,    0.1,    0.4,    0.7,    1.0,    1.0,    0.5,  999.0,   -0.5,   -1.0,   -1.2,   -1.2,   -1.2,   -1.2,   -1.1,   -1.1,   -1.1,   -1.1,   -1.1,   -1.0,   -1.0,   -0.9,   -0.8,   -0.8,   -0.8,   -0.7,   -0.7,   -0.7,   -0.6,   -0.5,   -0.5,   -0.4,  999.0,   -0.6,  999.0,  999.0,  999.0,  999.0,  999.0,  999.0
2000/01/12 03:40,   -0.0,  999.0,  999.0,    0.1,   -0.1,   -0.1,    0.1,    0.2,    0.3,    0.4,    0.7,    1.1,    1.1,    1.1,    0.4,   -0.7,   -0.8,   -1.2,   -1.3,   -1.4,   -1.4,   -1.3,   -1.2,   -1.1,   -1.0,   -1.0,   -0.9,   -0.9,   -0.9,   -0.8,   -0.7,   -0.8,   -0.7,   -0.7,   -0.7,   -0.5,   -0.4,   -0.4,   -0.5,   -0.6,   -0.5,  999.0,  999.0,  999.0,  999.0,  999.0,  999.0
2000/01/12 03:50,    0.1,  999.0,   -0.0,    0.3,    0.3,  999.0,    0.0,   -0.0,    0.3,    0.4,    0.5,    1.2,    1.4,    1.2,    0.4,   -0.1,   -0.7,   -1.0,   -1.1,   -1.1,   -0.9,   -1.0,   -1.0,   -0.9,   -1.0,   -1.0,   -0.9,   -0.9,   -0.8,   -0.7,   -0.6,   -0.5,   -0.5,   -0.6,   -0.6,   -0.4,   -0.4,  999.0,  999.0,  999.0,  999.0,  999.0,  999.0,  999.0,  999.0,  999.0,  999.0
2000/01/12 04:00,   -0.2,    0.0,    0.1,    0.2,    0.1,    0.2,   -0.2,    0.1,   -0.2,    0.4,    0.6,    0.4,    1.2,    0.4,  999.0,   -0.4,   -0.5,   -0.9,   -0.9,   -0.9,   -1.0,   -1.0,   -1.1,   -1.1,   -1.0,   -0.9,   -0.9,   -0.8,   -0.8,   -0.7,   -0.7,   -0.6,   -0.5,   -0.4,   -0.7,  999.0,  999.0,  999.0,  999.0,  999.0,  999.0,  999.0,  999.0,  999.0,  999.0,  999.0,  999.0
2000/01/12 04:10,    0.1,   -0.1,   -0.1,    0.1,    0.0,    0.3,   -0.0,    0.1,    0.1,   -0.1,    0.0,    0.2,    0.6,   -0.4,   -1.6,   -1.4,   -1.3,   -1.1,   -1.0,   -1.0,   -1.0,   -1.0,   -1.0,   -1.0,   -0.8,   -0.8,   -0.8,   -0.8,   -0.8,   -0.8,   -0.8,   -0.7,   -0.7,   -0.6,  999.0,  999.0,  999.0,  999.0,  999.0,  999.0,  999.0,  999.0,  999.0,  999.0,  999.0,  999.0,  999.0
2000/01/12 04:20,    0.3,   -0.1,    0.1,  999.0,   -0.1,  999.0,    0.0,    0.2,    0.2,    0.5,  999.0,    0.6,    0.9,    0.4,   -0.1,   -0.8,   -1.0,   -1.1,   -1.1,   -1.0,   -0.9,   -0.8,   -0.8,   -0.8,   -0.8,   -0.7,   -0.7,   -0.6,   -0.6,   -0.5,   -0.5,   -0.5,   -0.5,  999.0,  999.0,  999.0,  999.0,  999.0,  999.0,  999.0,  999.0,  999.0,  999.0,  999.0,  999.0,  999.0,  999.0
2000/01/12 04:30,   -0.0,   -0.3,    0.1,   -0.1,   -0.0,    0.0,   -0.1,    0.0,    0.1,    0.4,    0.5,   -0.8,  999.0,   -2.4,   -1.4,   -1.3,   -1.0,   -0.8,   -0.9,   -0.8,   -0.7,   -0.7,   -0.9,   -0.8,   -0.9,   -0.8,   -0.6,   -0.5,   -0.6,   -0.7,  999.0,  999.0,  999.0,  999.0,  999.0,  999.0,  999.0,  999.0,   -0.8,   -1.1,   -0.5,  999.0,  999.0,  999.0,  999.0,  999.0,  999.0
2000/01/12 04:40,   -0.2,   -0.2,   -0.1,   -0.2,    0.1,   -0.1,   -0.4,    0.0,   -1.1,   -1.5,   -1.6,   -1.8,   -1.4,   -1.2,   -1.2,   -1.2,   -0.9,   -0.8,   -0.9,   -0.9,   -0.9,   -0.9,   -0.9,   -0.9,   -1.0,   -1.0,   -1.1,   -1.0,   -1.0,   -0.8,   -0.7,   -0.8,   -0.8,   -0.7,   -0.6,   -0.7,   -0.5,   -0.7,   -0.8,   -0.5,   -0.4,  999.0,  999.0,  999.0,  999.0,  999.0,  999.0
2000/01/12 04:50,    0.0,   -0.1,   -0.1,    0.0,   -0.0,    0.2,    0.1,    0.2,    0.6,    0.0,   -0.1,   -1.0,   -1.2,   -1.4,   -1.1,   -1.1,   -1.0,   -0.9,   -0.7,   -0.6,   -0.5,   -0.7,   -0.6,   -0.6,   -0.7,   -0.7,   -0.8,   -0.7,   -0.7,   -0.7,   -0.5,   -0.6,   -0.5,   -0.5,   -0.5,   -0.6,  999.0,  999.0,  999.0,  999.0,  999.0,  999.0,  999.0,  999.0,  999.0,  999.0,  999.0
2000/01/12 05:00,   -0.2,    0.0,    0.0,  999.0,   -0.1,  999.0,    0.1,    0.1,    0.2,    0.6,    0.5,   -0.3,   -1.0,   -0.9,   -1.0,   -0.8,   -0.7,   -0.8,   -1.0,   -1.0,   -1.0,   -1.0,   -0.9,   -0.9,   -0.8,   -0.8,   -0.7,   -0.7,   -0.7,   -0.6,   -0.7,   -0.6,  999.0,  999.0,  999.0,  999.0,  999.0,  999.0,  999.0,   -0.6,  999.0,   -0.2,  999.0,  999.0,  999.0,  999.0,  999.0
2000/01/12 05:10,   -0.0,   -0.2,    0.0,  999.0,    0.1,   -0.2,   -0.1,   -0.2,    0.3,   -0.1,   -0.1,   -0.9,   -1.0,   -1.0,   -1.1,   -1.0,   -1.0,   -1.0,   -1.0,   -1.0,   -1.0,   -1.0,   -1.0,   -0.9,   -0.8,   -0.7,   -0.7,   -0.6,   -0.6,   -0.6,   -0.6,   -0.5,   -0.5,   -0.5,   -0.5,   -0.5,   -0.5,   -0.4,   -0.4,   -0.4,   -0.3,  999.0,  999.0,  999.0,  999.0,  999.0,  999.0
2000/01/12 05:20,    0.0,   -0.2,   -0.0,   -0.1,    0.1,    0.1,    0.2,   -0.3,   -0.5,   -1.0,   -1.5,   -1.6,   -1.8,   -1.5,   -1.2,   -0.9,   -0.8,   -0.7,   -0.7,   -0.8,   -0.8,   -1.1,   -1.1,   -1.1,   -1.1,   -1.1,   -1.0,   -0.9,   -0.9,   -0.8,   -0.8,   -0.8,   -0.7,   -0.7,   -0.6,   -0.6,   -0.5,   -0.4,   -0.3,   -0.4,   -0.5,  999.0,  999.0,  999.0,  999.0,  999.0,  999.0
2000/01/12 05:30,  999.0,   -0.3,   -0.4,  999.0,   -0.1,    0.0,    0.4,   -0.4,   -1.3,   -1.2,   -1.6,   -1.6,   -1.3,   -1.0,   -1.0,   -1.1,   -0.8,   -1.0,   -1.1,   -0.8,   -1.0,   -0.7,   -0.7,   -0.7,   -0.7,   -0.7,   -0.7,   -0.7,   -0.7,   -0.6,   -0.6,   -0.6,   -0.6,   -0.6,   -0.6,   -0.6,   -0.5,   -0.3,   -0.3,   -0.4,  999.0,  999.0,  999.0,  999.0,  999.0,  999.0,  999.0
2000/01/12 05:40,   -0.3,    0.2,   -0.1,  999.0,   -0.4,    0.4,   -0.3,   -0.0,   -0.3,   -0.4,   -0.9,   -1.1,   -0.8,   -0.9,   -1.0,   -1.0,   -0.9,   -0.9,   -1.0,   -0.9,   -1.0,   -0.9,   -0.9,   -0.9,   -0.8,   -0.7,   -0.7,   -0.7,   -0.7,   -0.7,   -0.7,   -0.7,   -0.6,   -0.6,   -0.6,   -0.4,   -0.5,   -0.4,   -0.4,   -0.4,   -0.2,   -0.2,  999.0,  999.0,  999.0,  999.0,  999.0
2000/01/12 05:50,   -0.0,    0.2,  999.0,    0.1,    0.1,    0.3,   -0.1,    0.2,    0.2,    0.3,    0.1,   -0.9,   -1.1,   -0.9,   -0.8,   -0.8,   -0.7,   -0.8,   -0.9,   -0.9,   -0.9,   -0.9,   -0.8,   -0.8,   -0.8,   -0.9,   -0.8,   -0.8,   -0.8,   -0.7,   -0.7,   -0.7,   -0.7,   -0.7,   -0.7,   -0.6,   -0.6,   -0.5,   -0.6,   -0.5,   -0.4,   -0.5,  999.0,  999.0,  999.0,  999.0,  999.0
2000/01/12 06:00,  999.0,  999.0,    0.2,  999.0,    0.1,    0.2,    0.1,   -0.0,   -0.1,   -0.1,   -0.3,   -0.9,   -1.0,   -1.0,   -1.0,   -1.0,   -1.1,   -1.1,   -1.1,   -1.1,   -1.1,   -1.1,   -1.0,   -1.0,   -1.0,   -0.9,   -0.9,   -0.8,   -0.8,   -0.7,   -0.7,   -0.6,   -0.7,   -0.7,   -0.7,   -0.6,   -0.6,   -0.5,   -0.5,   -0.4,   -0.5,  999.0,  999.0,  999.0,  999.0,  999.0,  999.0
2000/01/12 06:10,    0.0,    0.1,    0.1,    0.4,  999.0,    0.2,   -0.0,   -0.3,   -0.1,   -0.3,   -1.2,   -1.1,   -1.3,   -1.2,   -1.1,   -0.9,   -1.4,   -1.0,   -0.9,   -1.3,   -1.0,   -0.9,   -0.9,   -0.9,   -0.9,   -0.8,   -0.7,   -0.7,   -0.6,   -0.6,   -0.6,   -0.6,   -0.5,   -0.5,   -0.6,   -0.5,   -0.5,   -0.5,   -0.3,   -0.2,  999.0,  999.0,  999.0,  999.0,  999.0,  999.0,  999.0
2000/01/12 06:20,  999.0,  999.0,   -0.1,    0.2,   -0.1,    0.2,    0.2,   -0.2,   -0.3,   -0.2,   -0.9,   -1.0,   -0.9,   -0.9,   -0.8,   -0.9,   -1.1,   -1.1,   -1.1,   -1.1,   -1.1,   -1.1,   -1.1,   -1.0,   -1.0,   -0.9,   -0.9,   -0.8,   -0.8,   -0.8,   -0.7,   -0.8,   -0.7,   -0.7,   -0.7,   -0.6,   -0.5,   -0.5,   -0.4,   -0.4,   -0.4,  999.0,  999.0,  999.0,  999.0,  999.0,  999.0
2000/01/12 06:30,   -0.1,  999.0,   -0.0,   -0.0,   -0.1,   -0.2,    0.2,    0.2,    0.3,   -0.3,   -0.7,   -0.9,   -1.2,   -0.8,   -1.3,   -1.2,   -1.0,   -0.9,   -0.9,   -0.9,   -1.0,   -1.0,   -1.0,   -1.1,   -1.1,   -1.0,   -1.0,   -1.0,   -1.0,   -0.9,   -0.8,   -0.8,   -0.8,   -0.8,   -0.8,   -0.8,   -0.7,   -0.6,   -0.5,   -0.5,   -0.4,   -0.3,  999.0,  999.0,  999.0,  999.0,  999.0
2000/01/12 06:40,   -0.0,  999.0,    0.3,  999.0,  999.0,    0.0,    0.4,    0.5,    0.8,    0.7,    0.3,   -1.3,   -1.2,   -0.9,   -0.9,   -0.9,   -0.9,   -0.9,   -1.0,   -1.0,   -1.0,   -1.0,   -0.9,   -0.9,   -0.9,   -0.9,   -0.9,   -0.7,   -0.6,   -0.7,   -0.7,   -0.7,   -0.7,   -0.7,   -0.6,   -0.6,   -0.6,   -0.4,   -0.4,   -0.3,  999.0,   -0.4,  999.0,  999.0,  999.0,  999.0,  999.0
2000/01/12 06:50,   -0.1,  999.0,   -0.2,   -0.2,   -0.3,    0.3,    0.1,    0.4,    0.6,   -0.2,   -0.8,   -1.0,   -1.1,   -1.4,   -1.2,   -1.1,   -1.0,   -1.0,   -0.9,   -0.9,   -0.8,   -0.8,   -0.8,   -0.7,   -0.7,   -0.7,   -0.5,   -0.5,   -0.4,   -0.4,   -0.4,  999.0,   -0.5,   -0.5,   -0.4,   -0.1,  999.0,  999.0,  999.0,  999.0,  999.0,  999.0,  999.0,  999.0,  999.0,  999.0,  999.0
2000/01/12 07:00,  999.0,    0.3,    0.1,  999.0,   -0.3,    0.0,    0.1,    0.1,   -0.3,   -0.4,   -1.3,   -0.9,   -0.9,   -0.9,   -0.8,   -0.8,   -0.8,   -0.8,   -0.9,   -0.8,   -0.8,   -0.9,   -0.9,   -0.9,   -1.0,   -1.0,   -0.9,   -0.8,   -0.5,   -0.3,   -0.8,   -0.7,   -0.5,   -0.6,   -0.5,   -0.5,  999.0,   -0.6,   -0.4,   -0.5,   -0.4,  999.0,  999.0,  999.0,  999.0,  999.0,  999.0
2000/01/12 07:10,   -0.1,    0.0,    0.2,  999.0,   -0.0,    0.1,    0.7,    0.3,    0.2,    0.4,   -0.4,   -0.8,   -0.7,   -0.6,   -0.6,   -0.9,   -0.9,   -0.9,   -0.9,   -1.0,   -1.1,   -1.0,   -0.9,   -0.9,   -0.9,   -0.9,   -0.8,   -0.8,   -0.7,   -0.4,   -0.5,   -0.7,   -0.8,   -0.7,   -0.7,   -0.6,   -0.5,   -0.6,   -0.6,   -0.6,   -0.6,   -0.3,  999.0,  999.0,  999.0,  999.0,  999.0
2000/01/12 07:20,  999.0,  999.0,    0.3,    0.2,    0.3,    0.3,    0.0,    0.1,    0.2,    0.1,   -0.0,   -0.8,   -1.0,   -1.1,   -1.2,   -1.1,   -0.9,   -0.9,   -1.1,   -1.1,   -1.1,   -1.1,   -1.0,   -1.0,   -1.0,   -1.0,   -0.9,   -0.8,   -0.6,   -0.4,   -0.4,   -0.5,   -0.5,   -0.6,   -0.5,   -0.4,   -0.5,   -0.4,   -0.4,   -0.5,   -0.2,  999.0,  999.0,  999.0,  999.0,  999.0,  999.0
2000/01/12 07:30,   -0.1,    0.1,    0.3,    0.2,    0.2,    0.1,    0.0,    0.2,    0.5,    0.0,   -0.9,   -1.1,   -1.2,   -1.1,   -1.2,   -1.0,   -1.1,   -1.1,   -1.1,   -1.0,   -1.0,   -0.9,   -0.9,   -0.9,   -0.8,   -0.9,   -0.8,   -0.6,   -0.3,   -0.1,   -0.1,  999.0,  999.0,   -0.4,   -0.5,   -0.4,   -0.5,  999.0,   -0.2,  999.0,  999.0,  999.0,  999.0,  999.0,  999.0,  999.0,  999.0
2000/01/12 07:40,  999.0,   -0.1,  999.0,   -0.0,   -0.0,    0.0,   -0.1,    0.2,    0.0,   -0.6,   -0.6,   -1.0,   -1.0,   -1.1,   -1.0,   -0.9,   -1.0,   -1.0,   -1.0,   -1.1,   -1.0,   -1.0,   -1.0,   -1.0,   -0.9,   -0.8,   -0.8,   -0.6,   -0.4,   -0.5,   -0.4,  999.0,   -0.6,   -0.6,   -0.5,   -0.6,   -0.5,   -0.3,   -0.3,  999.0,  999.0,  999.0,  999.0,  999.0,  999.0,  999.0,  999.0
2000/01/12 07:50,  999.0,  999.0,  999.0,  999.0,  999.0,  999.0,   -0.1,   -0.1,  999.0,   -1.7,   -1.5,   -1.4,   -1.0,   -1.0,   -1.1,   -1.2,   -1.0,   -1.1,   -1.1,   -1.0,   -1.0,   -1.0,   -0.9,   -0.9,   -0.8,   -0.8,   -0.7,   -0.7,   -0.6,   -0.5,   -0.6,   -0.6,   -0.6,   -0.6,   -0.6,   -0.5,   -0.5,   -0.5,   -0.6,   -0.5,   -0.4,  999.0,  999.0,  999.0,  999.0,  999.0,  999.0
2000/01/12 08:00,  999.0,  999.0,  999.0,  999.0,  999.0,    0.2,    0.1,   -0.3,   -0.7,   -1.1,   -1.2,   -1.1,   -1.1,   -1.1,   -1.1,   -1.3,   -1.3,  999.0,   -1.1,   -1.1,   -1.1,   -1.1,   -1.0,   -1.0,   -0.9,   -0.9,   -0.9,   -0.9,   -0.8,   -0.8,   -0.7,   -0.7,   -0.7,   -0.6,   -0.6,   -0.6,   -0.4,   -0.3,   -0.3,   -0.3,   -0.1,  999.0,  999.0,  999.0,  999.0,  999.0,  999.0
2000/01/12 08:10,  999.0,  999.0,  999.0,  999.0,  999.0,  999.0,    0.1,    0.2,    0.1,   -1.3,   -1.0,   -1.3,   -1.2,   -1.0,   -1.1,   -1.1,   -1.2,   -1.2,   -1.2,   -1.1,   -1.1,   -1.0,   -1.0,   -0.9,   -0.9,   -0.8,   -0.8,   -0.7,   -0.6,   -0.5,   -0.5,   -0.6,   -0.5,   -0.5,   -0.3,   -0.5,   -0.4,   -0.4,  999.0,  999.0,  999.0,  999.0,  999.0,  999.0,  999.0,  999.0,  999.0
2000/01/12 08:20,  999.0,    0.0,  999.0,  999.0,  999.0,  999.0,   -0.3,   -0.3,   -1.0,   -1.2,   -1.0,   -0.8,   -0.9,   -0.8,   -0.8,   -1.0,   -0.8,   -0.9,   -0.9,   -0.9,   -0.9,   -0.8,   -0.8,   -0.7,   -0.7,   -0.6,   -0.5,   -0.5,   -0.4,   -0.5,   -0.6,   -0.4,   -0.5,   -0.4,   -0.3,  999.0,  999.0,  999.0,  999.0,  999.0,  999.0,  999.0,  999.0,  999.0,  999.0,  999.0,  999.0
2000/01/12 08:30,    0.1,   -0.1,    0.1,   -0.1,    0.1,   -0.1,   -0.1,    0.3,   -0.8,   -1.0,   -1.0,   -1.1,   -1.0,   -0.9,   -0.9,   -0.7,   -1.1,   -0.8,   -0.8,   -0.7,   -0.7,   -0.7,   -0.7,   -0.6,   -0.6,   -0.5,   -0.6,   -0.6,   -0.5,   -0.5,   -0.5,   -0.6,   -0.5,   -0.5,   -0.6,   -0.5,   -0.4,   -0.5,   -0.5,   -0.5,  999.0,  999.0,  999.0,  999.0,  999.0,  999.0,  999.0
2000/01/12 08:40,  999.0,  999.0,  999.0,  999.0,   -0.1,    0.1,    0.1,   -0.2,   -0.1,   -0.8,   -0.9,   -0.8,   -0.7,   -0.8,   -0.8,   -0.7,   -0.8,   -0.8,   -0.8,   -0.8,   -0.8,   -0.8,   -0.7,   -0.7,   -0.7,   -0.6,   -0.6,   -0.6,   -0.6,   -0.7,   -0.7,   -0.6,   -0.6,   -0.6,   -0.6,   -0.5,   -0.5,   -0.5,   -0.4,   -0.4,   -0.3,  999.0,  999.0,  999.0,  999.0,  999.0,  999.0
2000/01/12 08:50,   -0.1,  999.0,   -0.3,  999.0,    0.3,    0.1,    0.2,   -0.3,   -0.7,   -1.3,   -1.2,   -1.0,   -0.8,   -0.7,   -0.7,   -0.8,   -0.7,   -0.7,   -0.6,   -0.6,   -0.6,   -0.6,   -0.5,   -0.5,   -0.5,   -0.4,   -0.5,   -0.5,   -0.5,   -0.6,   -0.5,   -0.5,   -0.4,   -0.4,   -0.4,   -0.4,   -0.2,  999.0,  999.0,  999.0,  999.0,  999.0,  999.0,  999.0,  999.0,  999.0,  999.0
2000/01/12 09:00,   -0.1,  999.0,   -0.3,   -0.0,  999.0,   -0.7,    0.2,   -0.1,   -0.6,   -1.0,   -1.0,   -0.9,   -0.9,   -0.8,   -0.8,   -0.8,   -0.7,   -0.8,   -0.7,   -0.6,   -0.6,   -0.5,   -0.5,   -0.4,   -0.3,   -0.4,   -0.3,   -0.3,   -0.3,   -0.3,   -0.5,   -0.4,   -0.4,   -0.3,   -0.3,   -0.2,   -0.2,   -0.4,    0.0,  999.0,  999.0,  999.0,  999.0,  999.0,  999.0,  999.0,  999.0
2000/01/12 09:10,   -0.0,  999.0,   -0.2,   -0.1,  999.0,    0.0,   -0.0,    0.0,   -0.4,   -0.9,   -1.1,   -0.9,   -0.8,   -0.8,   -0.8,   -0.8,   -1.0,   -1.0,   -0.9,   -0.9,   -0.9,   -0.9,   -0.8,   -0.7,   -0.6,   -0.6,   -0.7,   -0.3,    0.1,  999.0,   -0.5,   -0.4,   -0.3,   -0.3,   -0.4,  999.0,  999.0,  999.0,  999.0,  999.0,  999.0,  999.0,  999.0,  999.0,  999.0,  999.0,  999.0
2000/01/12 09:20,  999.0,   -0.1,  999.0,   -0.2,   -0.3,    0.0,   -0.1,   -0.3,   -0.7,   -1.1,   -0.9,   -0.9,   -0.9,   -0.8,   -0.9,   -0.8,   -0.8,   -0.9,   -0.9,   -0.9,   -0.9,   -0.9,   -0.8,   -0.8,   -0.7,   -0.7,   -0.6,   -0.5,   -0.2,   -0.2,   -0.5,   -0.5,   -0.4,   -0.5,   -0.4,  999.0,  999.0,  999.0,  999.0,  999.0,  999.0,  999.0,  999.0,  999.0,  999.0,  999.0,  999.0
2000/01/12 09:30,  999.0,   -0.2,    0.0,    0.0,   -0.1,    0.2,    0.4,    0.2,   -0.4,   -0.8,   -0.9,   -0.9,   -0.9,   -0.7,   -0.7,   -0.8,   -0.8,   -0.8,   -0.8,   -0.8,   -0.7,   -0.7,   -0.7,   -0.7,   -0.7,   -0.7,   -0.6,   -0.6,   -0.5,   -0.3,   -0.3,   -0.4,   -0.4,   -0.5,   -0.3,   -0.5,  999.0,  999.0,  999.0,  999.0,  999.0,  999.0,  999.0,  999.0,  999.0,  999.0,  999.0
2000/01/12 09:40,  999.0,   -0.0,  999.0,    0.1,   -0.1,   -0.4,   -0.3,   -0.4,   -1.1,   -1.0,   -0.8,   -0.8,   -0.8,   -0.8,   -0.7,   -0.9,   -0.8,   -0.8,   -0.7,   -0.7,   -0.7,   -0.6,   -0.6,   -0.6,   -0.6,   -0.6,   -0.5,   -0.5,   -0.4,   -0.3,   -0.3,   -0.3,   -0.4,   -0.3,   -0.2,   -0.1,   -0.1,  999.0,  999.0,  999.0,  999.0,  999.0,  999.0,  999.0,  999.0,  999.0,  999.0
2000/01/12 09:50,   -0.0,  999.0,  999.0,   -0.0,    0.2,   -0.0,   -0.3,   -0.6,   -0.6,   -0.9,   -0.9,   -0.8,   -0.8,   -0.7,   -0.6,   -0.8,   -0.7,   -0.7,   -0.6,   -0.6,   -0.5,   -0.6,   -0.5,   -0.6,   -0.6,   -0.5,   -0.6,   -0.5,   -0.5,   -0.3,   -0.3,   -0.3,   -0.2,   -0.4,   -0.3,   -0.3,   -0.2,   -0.2,  999.0,  999.0,  999.0,  999.0,  999.0,  999.0,  999.0,  999.0,  999.0
2000/01/12 10:00,  999.0,  999.0,  999.0,   -0.0,   -0.1,  999.0,    0.3,    0.1,    0.2,   -0.2,   -0.5,   -0.6,   -0.8,   -0.7,   -0.6,   -0.7,   -0.6,   -0.7,   -0.7,   -0.6,   -0.6,   -0.6,   -0.7,   -0.7,   -0.7,   -0.7,   -0.6,   -0.6,  999.0,   -0.5,   -0.5,   -0.5,   -0.5,  999.0,  999.0,  999.0,  999.0,  999.0,  999.0,  999.0,  999.0,  999.0,  999.0,  999.0,  999.0,  999.0,  999.0
2000/01/12 10:10,   -0.0,   -0.1,  999.0,   -0.1,    0.1,  999.0,  999.0,    0.1,  999.0,   -0.2,   -0.7,   -0.7,   -0.7,   -0.7,   -0.8,   -0.7,   -0.6,   -0.6,   -0.5,   -0.5,   -0.5,   -0.5,   -0.6,   -0.7,   -0.7,   -0.8,   -0.8,   -0.8,   -0.6,   -0.5,   -0.4,   -0.6,   -0.7,   -0.5,   -0.4,   -0.2,   -0.3,    0.0,  999.0,  999.0,  999.0,  999.0,  999.0,  999.0,  999.0,  999.0,  999.0
2000/01/12 10:20,  999.0,   -0.0,  999.0,  999.0,    0.1,  999.0,    0.2,    0.1,    0.1,   -0.1,   -0.5,   -0.5,   -0.7,   -0.6,  999.0,   -0.5,   -0.6,   -0.6,   -0.6,   -0.5,   -0.2,  999.0,  999.0,   -0.4,   -0.6,   -0.6,   -0.5,   -0.6,   -0.3,   -0.6,   -0.5,   -0.6,   -0.4,   -0.5,   -0.5,   -0.3,   -0.0,  999.0,  999.0,  999.0,  999.0,  999.0,  999.0,  999.0,  999.0,  999.0,  999.0
2000/01/12 10:30,  999.0,   -0.0,  999.0,  999.0,  999.0,  999.0,    0.2,    0.1,    0.0,    0.0,   -0.4,   -0.7,   -0.7,   -0.9,   -0.9,  999.0,   -0.8,   -0.7,   -0.6,   -0.6,   -0.4,   -0.6,   -0.5,   -0.6,   -0.7,   -0.7,   -0.6,   -0.7,   -0.5,   -0.6,   -0.7,   -0.6,   -0.6,   -0.4,  999.0,  999.0,  999.0,  999.0,  999.0,  999.0,  999.0,  999.0,  999.0,  999.0,  999.0,  999.0,  999.0
2000/01/12 10:40,   -0.1,   -0.0,  999.0,  999.0,  999.0,  999.0,    0.2,    0.1,    0.3,    0.1,   -0.1,   -0.6,   -0.6,  999.0,  999.0,  999.0,   -0.5,   -0.3,  999.0,   -0.3,  999.0,   -0.3,   -0.6,   -0.8,   -0.8,   -0.8,   -0.8,   -0.8,   -0.7,   -0.7,   -0.6,   -0.5,   -0.5,   -0.4,   -0.4,  999.0,  999.0,  999.0,  999.0,  999.0,  999.0,  999.0,  999.0,  999.0,  999.0,  999.0,  999.0
2000/01/12 10:50,  999.0,   -0.1,  999.0,    0.2,    0.3,    0.3,    0.1,    0.2,    0.2,    0.1,    0.0,   -0.5,  999.0,  999.0,  999.0,   -0.2,   -0.4,   -0.4,   -0.3,  999.0,  999.0,  999.0,   -0.7,   -0.8,   -0.7,   -0.6,   -0.6,   -0.7,   -0.7,   -0.6,   -0.6,   -0.5,   -0.5,   -0.4,   -0.4,   -0.2,   -0.1,  999.0,  999.0,  999.0,  999.0,  999.0,  999.0,  999.0,  999.0,  999.0,  999.0
2000/01/12 11:00,   -0.1,   -0.2,   -0.2,   -0.1,  999.0,    0.1,  999.0,    0.1,    0.2,    0.1,    0.0,   -0.1,   -0.2,   -0.4,   -0.2,   -0.4,   -0.4,   -0.5,   -0.2,  999.0,  999.0,  999.0,   -0.3,  999.0,   -0.7,   -0.5,   -0.5,   -0.5,   -0.5,   -0.5,   -0.5,   -0.4,   -0.4,   -0.3,   -0.2,  999.0,  999.0,  999.0,  999.0,  999.0,  999.0,  999.0,  999.0,  999.0,  999.0,  999.0,  999.0
2000/01/12 11:10,  999.0,   -0.2,   -0.0,    0.3,    0.2,    0.2,    0.1,    0.3,    0.4,    0.0,    0.0,   -0.5,   -0.4,   -0.2,   -0.3,   -0.5,  999.0,   -0.4,   -0.3,   -0.0,  999.0,  999.0,   -0.4,   -0.3,  999.0,  999.0,  999.0,  999.0,  999.0,   -0.4,   -0.4,   -0.4,   -0.3,   -0.2,  999.0,  999.0,  999.0,  999.0,  999.0,  999.0,  999.0,  999.0,  999.0,  999.0,  999.0,  999.0,  999.0
2000/01/12 11:20,  999.0,   -0.1,  999.0,  999.0,  999.0,    0.1,    0.4,    0.3,    0.1,   -0.1,   -0.1,   -0.2,   -0.3,   -0.6,  999.0,  999.0,   -0.9,   -0.9,   -0.8,   -1.0,   -1.0,   -1.0,   -1.0,   -0.9,   -0.8,   -0.7,   -0.5,   -0.6,   -0.4,   -0.4,   -0.5,   -0.5,   -0.3,   -0.2,  999.0,  999.0,  999.0,  999.0,  999.0,  999.0,  999.0,  999.0,  999.0,  999.0,  999.0,  999.0,  999.0
2000/01/12 11:30,   -0.1,   -0.2,  999.0,  999.0,  999.0,  999.0,    0.3,    0.4,    0.3,    0.1,    0.2,    0.0,   -0.4,  999.0,   -0.3,   -0.6,   -0.7,   -0.7,   -0.8,   -0.9,   -1.0,   -0.9,   -0.9,   -0.9,   -0.9,   -0.8,   -0.7,   -0.7,   -0.6,   -0.7,   -0.6,   -0.4,   -0.3,   -0.1,    0.0,  999.0,  999.0,  999.0,  999.0,  999.0,  999.0,  999.0,  999.0,  999.0,  999.0,  999.0,  999.0
2000/01/12 11:40,  999.0,   -0.3,  999.0,  999.0,   -0.4,  999.0,  999.0,  999.0,    0.2,    0.1,    0.0,   -0.0,   -0.3,   -0.5,   -0.7,   -0.9,   -0.9,   -0.8,   -0.8,   -0.8,   -0.7,   -0.7,   -0.6,   -0.7,   -0.6,   -0.5,   -0.5,   -0.7,   -0.7,   -0.4,   -0.2,   -0.1,   -0.2,   -0.2,  999.0,  999.0,  999.0,  999.0,  999.0,  999.0,  999.0,  999.0,  999.0,  999.0,  999.0,  999.0,  999.0
2000/01/12 11:50,    0.0,   -0.1,   -0.1,   -0.3,   -0.1,   -0.1,   -0.2,  999.0,   -0.0,  999.0,   -0.1,   -0.3,   -0.8,   -0.6,   -0.8,   -0.8,   -0.7,   -0.6,   -0.5,   -0.5,   -0.3,   -0.4,   -0.4,   -0.4,   -0.6,   -0.6,   -0.6,   -0.7,   -0.6,   -0.5,   -0.4,   -0.3,   -0.4,  999.0,  999.0,  999.0,  999.0,  999.0,  999.0,  999.0,  999.0,  999.0,  999.0,  999.0,  999.0,  999.0,  999.0
2000/01/12 12:00,  999.0,   -0.3,   -0.3,   -0.2,   -0.3,  999.0,  999.0,   -0.0,    0.1,    0.2,   -0.7,   -0.5,   -0.8,   -0.9,   -1.0,   -0.8,   -0.8,   -0.8,   -0.8,   -0.8,   -0.8,   -0.8,   -0.8,   -0.8,   -0.9,   -0.9,   -0.9,   -0.9,   -0.8,   -0.7,   -0.7,   -0.6,   -0.5,   -0.4,   -0.4,  999.0,  999.0,  999.0,  999.0,  999.0,  999.0,  999.0,  999.0,  999.0,  999.0,  999.0,  999.0
2000/01/12 12:10,  999.0,   -0.3,   -0.2,   -0.2,   -0.4,  999.0,  999.0,   -0.4,    0.1,    0.1,  999.0,  999.0,   -0.7,   -0.9,   -1.1,   -0.9,   -1.0,   -1.0,   -1.0,   -1.0,   -1.0,   -0.9,   -1.0,   -1.0,   -0.9,   -0.9,   -0.8,   -0.9,   -0.8,   -0.8,   -0.5,   -0.5,   -0.4,   -0.3,   -0.2,  999.0,  999.0,  999.0,  999.0,  999.0,  999.0,  999.0,  999.0,  999.0,  999.0,  999.0,  999.0
2000/01/12 12:20,   -0.4,   -0.2,   -0.2,   -0.3,  999.0,  999.0,  999.0,   -0.1,    0.1,   -0.0,    0.1,  999.0,    0.0,   -0.7,   -0.7,   -0.7,   -0.5,   -0.5,   -0.6,   -0.7,   -0.7,  999.0,   -0.6,  999.0,   -0.5,  999.0,  999.0,  999.0,  999.0,  999.0,  999.0,  999.0,  999.0,  999.0,  999.0,  999.0,  999.0,  999.0,  999.0,  999.0,  999.0,  999.0,  999.0,  999.0,  999.0,  999.0,  999.0
2000/01/12 12:30,  999.0,   -0.3,   -0.4,   -0.4,   -0.4,   -0.3,   -0.2,   -0.1,    0.0,   -0.1,    0.0,   -0.8,   -0.1,    0.0,  999.0,  999.0,  999.0,  999.0,   -0.4,   -0.5,   -0.7,   -0.6,   -0.6,   -0.5,   -0.3,   -0.0,  999.0,  999.0,  999.0,  999.0,  999.0,  999.0,  999.0,  999.0,  999.0,  999.0,  999.0,  999.0,  999.0,  999.0,  999.0,  999.0,  999.0,  999.0,  999.0,  999.0,  999.0
2000/01/12 12:40,   -0.3,   -0.3,   -0.4,   -0.3,   -0.2,   -0.2,   -0.2,   -0.3,   -0.5,   -0.5,   -0.6,   -0.6,   -0.1,  999.0,  999.0,  999.0,  999.0,  999.0,  999.0,  999.0,  999.0,  999.0,  999.0,  999.0,   -0.4,   -0.1,   -0.3,   -0.1,   -0.0,  999.0,  999.0,  999.0,  999.0,  999.0,  999.0,  999.0,  999.0,  999.0,  999.0,  999.0,  999.0,  999.0,  999.0,  999.0,  999.0,  999.0,  999.0
2000/01/12 12:50,  999.0,  999.0,  999.0,  999.0,   -0.1,    0.0,  999.0,   -0.1,    0.0,   -0.0,    0.1,    0.1,    0.1,   -0.2,   -0.1,   -0.2,   -0.2,   -0.3,    0.0,    0.2,  999.0,  999.0,  999.0,  999.0,  999.0,  999.0,  999.0,  999.0,  999.0,  999.0,  999.0,  999.0,  999.0,  999.0,  999.0,  999.0,  999.0,  999.0,  999.0,  999.0,  999.0,  999.0,  999.0,  999.0,  999.0,  999.0,  999.0
2000/01/12 13:00,   -0.2,   -0.1,  999.0,  999.0,  999.0,  999.0,    0.2,    0.1,    0.1,    0.2,  999.0,   -0.2,   -0.4,   -0.4,   -0.4,   -0.4,   -0.4,   -0.4,   -0.3,   -0.3,  999.0,  999.0,  999.0,  999.0,  999.0,  999.0,  999.0,  999.0,  999.0,  999.0,  999.0,  999.0,  999.0,  999.0,  999.0,  999.0,  999.0,  999.0,  999.0,  999.0,  999.0,  999.0,  999.0,  999.0,  999.0,  999.0,  999.0
2000/01/12 13:10,   -0.3,   -0.1,   -0.1,  999.0,  999.0,    0.1,  999.0,    0.1,   -0.1,   -0.7,   -1.0,   -1.0,   -1.0,   -1.0,   -0.9,   -0.7,   -0.5,   -0.5,   -0.3,   -0.2,    0.0,  999.0,  999.0,  999.0,  999.0,  999.0,  999.0,  999.0,  999.0,  999.0,  999.0,  999.0,  999.0,  999.0,  999.0,  999.0,  999.0,  999.0,  999.0,  999.0,  999.0,  999.0,  999.0,  999.0,  999.0,  999.0,  999.0
2000/01/12 13:20,  999.0,  999.0,   -0.1,  999.0,   -0.0,  999.0,  999.0,    0.1,   -0.5,   -1.2,   -1.3,   -1.4,   -1.4,   -1.5,   -1.4,   -1.1,   -0.9,   -0.7,   -0.4,   -0.2,    0.0,  999.0,  999.0,  999.0,  999.0,  999.0,  999.0,  999.0,   -0.2,  999.0,  999.0,  999.0,  999.0,  999.0,  999.0,  999.0,  999.0,  999.0,  999.0,  999.0,  999.0,  999.0,  999.0,  999.0,  999.0,  999.0,  999.0
2000/01/12 13:30,   -0.1,    0.0,   -0.1,   -0.3,   -0.1,   -0.0,   -0.7,   -1.1,   -1.3,   -1.4,   -1.5,   -1.4,  999.0,  999.0,  999.0,   -1.0,   -0.9,   -0.8,   -0.6,   -0.3,   -0.2,   -0.4,  999.0,  999.0,  999.0,  999.0,  999.0,   -0.1,  999.0,  999.0,  999.0,  999.0,  999.0,  999.0,  999.0,  999.0,  999.0,  999.0,  999.0,  999.0,  999.0,  999.0,  999.0,  999.0,  999.0,  999.0,  999.0
2000/01/12 13:40,   -0.1,   -0.4,   -1.3,   -1.1,   -0.2,   -0.1,   -0.8,  999.0,   -1.0,   -1.2,   -1.5,   -1.6,   -1.8,   -1.6,   -1.2,   -1.0,   -1.1,   -1.0,   -0.7,   -0.5,   -0.4,   -0.5,  999.0,  999.0,  999.0,  999.0,  999.0,  999.0,  999.0,  999.0,  999.0,  999.0,  999.0,  999.0,  999.0,  999.0,  999.0,  999.0,  999.0,  999.0,  999.0,  999.0,  999.0,  999.0,  999.0,  999.0,  999.0
2000/01/12 13:50,  999.0,   -4.2,   -2.7,   -2.5,  999.0,  999.0,   -0.2,   -0.4,   -0.7,   -1.1,   -1.5,   -1.5,   -1.5,   -1.3,   -1.0,   -0.8,   -0.8,   -0.7,   -0.7,   -0.7,   -0.6,   -0.4,   -0.2,  999.0,  999.0,  999.0,  999.0,  999.0,  999.0,  999.0,  999.0,  999.0,  999.0,  999.0,  999.0,  999.0,  999.0,  999.0,  999.0,  999.0,  999.0,  999.0,  999.0,  999.0,  999.0,  999.0,  999.0
2000/01/12 14:00,  999.0,   -1.5,  999.0,   -0.2,   -0.4,   -0.1,   -0.4,   -0.8,   -0.7,   -1.5,   -1.7,   -1.8,  999.0,  999.0,   -1.3,   -1.0,   -1.0,   -0.9,   -0.8,   -0.7,   -0.5,   -0.3,   -0.2,  999.0,  999.0,  999.0,  999.0,  999.0,  999.0,  999.0,  999.0,  999.0,  999.0,  999.0,  999.0,  999.0,  999.0,  999.0,  999.0,  999.0,  999.0,  999.0,  999.0,  999.0,  999.0,  999.0,  999.0
2000/01/12 14:10,  999.0,   -4.0,   -3.8,   -3.7,  999.0,  999.0,   -1.3,  999.0,   -1.5,   -1.5,  999.0,  999.0,  999.0,  999.0,   -1.2,   -1.0,   -0.9,   -0.8,   -0.8,   -0.8,   -0.8,   -0.5,   -0.3,   -0.1,  999.0,  999.0,  999.0,  999.0,  999.0,  999.0,  999.0,  999.0,  999.0,  999.0,  999.0,  999.0,  999.0,  999.0,  999.0,  999.0,  999.0,  999.0,  999.0,  999.0,  999.0,  999.0,  999.0
2000/01/12 14:20,   -3.6,   -4.1,   -3.9,   -3.9,  999.0,  999.0,  999.0,  999.0,   -0.8,  999.0,   -1.4,   -1.6,   -1.6,   -1.4,   -1.2,  999.0,   -1.0,   -0.8,   -0.7,   -0.8,   -0.7,   -0.6,   -0.3,   -0.1,  999.0,  999.0,  999.0,  999.0,  999.0,  999.0,  999.0,  999.0,  999.0,  999.0,  999.0,  999.0,  999.0,  999.0,  999.0,  999.0,  999.0,  999.0,  999.0,  999.0,  999.0,  999.0,  999.0
2000/01/12 14:30,   -2.7,  999.0,  999.0,  999.0,   -0.6,  999.0,  999.0,  999.0,   -0.6,  999.0,  999.0,  999.0,  999.0,   -1.3,   -1.2,   -1.2,   -1.2,   -1.0,   -0.9,   -0.9,   -0.8,   -0.4,   -0.2,  999.0,  999.0,  999.0,  999.0,  999.0,  999.0,  999.0,  999.0,  999.0,  999.0,  999.0,  999.0,  999.0,  999.0,  999.0,  999.0,  999.0,  999.0,  999.0,  999.0,  999.0,  999.0,  999.0,  999.0
2000/01/12 14:40,   -2.8,   -2.3,   -1.1,  999.0,  999.0,  999.0,  999.0,  999.0,   -0.8,   -0.9,   -1.0,   -1.2,   -1.2,   -1.1,   -1.0,   -1.0,   -1.0,   -1.0,   -0.9,   -0.9,   -0.6,   -0.4,   -0.3,  999.0,  999.0,  999.0,  999.0,  999.0,  999.0,  999.0,  999.0,  999.0,  999.0,  999.0,  999.0,  999.0,  999.0,  999.0,  999.0,  999.0,  999.0,  999.0,  999.0,  999.0,  999.0,  999.0,  999.0
2000/01/12 14:50,   -3.5,   -3.5,   -3.3,   -3.0,  999.0,   -1.0,  999.0,  999.0,   -1.1,   -1.1,   -1.1,  999.0,  999.0,   -1.1,  999.0,   -0.8,   -0.8,   -0.7,   -0.5,   -0.4,   -0.5,   -0.4,   -0.2,  999.0,  999.0,  999.0,  999.0,  999.0,  999.0,  999.0,  999.0,  999.0,  999.0,  999.0,  999.0,  999.0,  999.0,  999.0,  999.0,  999.0,  999.0,  999.0,  999.0,  999.0,  999.0,  999.0,  999.0
2000/01/12 15:00,   -3.6,   -4.0,   -3.2,   -3.0,  999.0,  999.0,  999.0,   -1.3,   -1.2,   -1.0,   -1.1,   -1.1,   -1.1,   -1.1,   -1.0,   -1.0,   -0.9,   -0.9,   -0.7,   -0.8,   -0.7,   -0.5,   -0.2,   -0.1,  999.0,  999.0,  999.0,  999.0,  999.0,  999.0,  999.0,  999.0,  999.0,  999.0,  999.0,  999.0,  999.0,  999.0,  999.0,  999.0,  999.0,  999.0,  999.0,  999.0,  999.0,  999.0,  999.0
2000/01/12 15:10,   -3.7,   -3.7,   -3.6,   -3.5,   -3.4,  999.0,  999.0,  999.0,   -0.5,   -0.4,   -0.6,   -0.8,   -0.9,   -0.9,   -0.8,   -0.7,   -0.7,   -0.6,   -0.6,   -0.6,   -0.4,   -0.2,    0.0,   -0.1,  999.0,  999.0,  999.0,  999.0,  999.0,  999.0,  999.0,  999.0,  999.0,  999.0,  999.0,  999.0,  999.0,  999.0,  999.0,  999.0,  999.0,  999.0,  999.0,  999.0,  999.0,  999.0,  999.0
2000/01/12 15:20,   -3.8,   -3.8,   -3.6,   -3.3,   -3.3,   -1.5,   -0.7,   -0.6,   -0.5,   -0.6,  999.0,   -1.0,   -0.8,  999.0,   -0.8,   -0.9,   -0.7,   -0.5,   -0.5,   -0.6,   -0.5,   -0.4,   -0.1,   -0.1,  999.0,  999.0,  999.0,  999.0,  999.0,  999.0,  999.0,  999.0,  999.0,  999.0,  999.0,  999.0,  999.0,  999.0,  999.0,  999.0,  999.0,  999.0,  999.0,  999.0,  999.0,  999.0,  999.0
2000/01/12 15:30,   -3.3,   -3.6,  999.0,   -3.7,   -3.2,   -2.2,   -1.5,   -1.0,   -0.9,   -0.7,   -1.0,   -1.1,   -1.2,   -0.9,  999.0,   -1.0,   -0.8,   -0.7,   -0.5,   -0.5,   -0.5,   -0.3,   -0.1,   -0.4,  999.0,  999.0,  999.0,  999.0,  999.0,  999.0,  999.0,  999.0,  999.0,  999.0,  999.0,  999.0,  999.0,  999.0,  999.0,  999.0,  999.0,  999.0,  999.0,  999.0,  999.0,  999.0,  999.0
2000/01/12 15:40,   -5.0,   -5.0,   -4.8,   -4.6,   -4.4,   -2.5,   -1.6,   -1.5,   -1.2,   -1.1,  999.0,   -0.9,   -0.9,   -0.9,   -0.9,   -0.8,   -0.7,   -0.6,   -0.5,   -0.6,   -0.5,   -0.2,   -0.0,  999.0,  999.0,  999.0,  999.0,  999.0,  999.0,  999.0,  999.0,  999.0,  999.0,  999.0,  999.0,  999.0,  999.0,  999.0,  999.0,  999.0,  999.0,  999.0,  999.0,  999.0,  999.0,  999.0,  999.0
2000/01/12 15:50,   -5.0,   -4.5,   -4.3,   -4.2,   -3.9,   -1.7,   -1.0,   -0.9,   -0.7,   -0.3,   -0.7,   -1.0,   -1.2,   -1.1,   -1.0,   -0.9,   -0.7,   -0.6,   -0.8,   -0.7,   -0.6,   -0.4,   -0.1,  999.0,  999.0,  999.0,  999.0,  999.0,  999.0,  999.0,  999.0,  999.0,  999.0,  999.0,  999.0,  999.0,  999.0,  999.0,  999.0,  999.0,  999.0,  999.0,  999.0,  999.0,  999.0,  999.0,  999.0
2000/01/12 16:00,   -4.0,   -4.2,   -3.9,   -3.7,   -3.5,   -1.1,   -0.7,   -0.3,   -0.2,    0.0,    0.2,    0.0,  999.0,  999.0,  999.0,   -0.1,   -0.2,  999.0,   -0.4,   -0.4,   -0.2,  999.0,   -0.2,  999.0,  999.0,  999.0,  999.0,  999.0,  999.0,  999.0,  999.0,  999.0,  999.0,  999.0,  999.0,  999.0,  999.0,  999.0,  999.0,  999.0,   -0.2,  999.0,  999.0,  999.0,  999.0,  999.0,  999.0
2000/01/12 16:10,  999.0,  999.0,  999.0,  999.0,  999.0,   -0.4,   -0.2,   -0.2,   -0.2,   -0.0,    0.3,    0.3,    0.2,    0.0,    0.1,    0.1,    0.1,  999.0,  999.0,   -0.2,   -0.1,  999.0,   -0.2,  999.0,  999.0,  999.0,  999.0,  999.0,  999.0,  999.0,  999.0,  999.0,  999.0,  999.0,  999.0,  999.0,  999.0,  999.0,  999.0,  999.0,  999.0,  999.0,  999.0,  999.0,  999.0,  999.0,  999.0
2000/01/12 16:20,   -0.8,   -0.8,   -0.8,  999.0,  999.0,   -0.5,   -0.3,   -0.4,   -0.2,    0.1,    0.3,    0.4,    0.1,    0.2,    0.1,    0.0,    0.2,  999.0,    0.0,  999.0,  999.0,   -0.0,   -0.0,  999.0,  999.0,  999.0,  999.0,  999.0,  999.0,  999.0,  999.0,  999.0,  999.0,  999.0,  999.0,  999.0,  999.0,  999.0,  999.0,  999.0,  999.0,  999.0,  999.0,  999.0,  999.0,  999.0,  999.0
2000/01/12 16:30,   -0.7,   -0.9,   -0.8,   -0.7,   -0.7,   -0.6,   -0.5,   -0.4,   -0.3,   -0.3,   -0.1,   -0.0,   -0.1,   -0.2,   -0.2,   -0.2,   -0.0,    0.2,   -0.4,   -0.4,   -0.2,    0.0,  999.0,  999.0,  999.0,  999.0,  999.0,  999.0,  999.0,  999.0,  999.0,  999.0,  999.0,  999.0,  999.0,  999.0,  999.0,  999.0,  999.0,  999.0,  999.0,  999.0,  999.0,  999.0,  999.0,  999.0,  999.0
2000/01/12 16:40,   -0.6,   -0.8,   -0.7,   -0.8,  999.0,  999.0,   -0.4,   -0.4,   -0.3,   -0.2,    0.1,  999.0,   -0.1,   -0.3,   -0.2,   -0.0,    0.1,  999.0,   -0.6,   -0.5,   -0.3,   -0.1,  999.0,  999.0,  999.0,  999.0,  999.0,  999.0,  999.0,  999.0,  999.0,  999.0,  999.0,  999.0,  999.0,  999.0,  999.0,  999.0,  999.0,  999.0,  999.0,  999.0,  999.0,  999.0,  999.0,  999.0,  999.0
2000/01/12 16:50,   -0.5,   -0.7,   -0.6,   -0.6,  999.0,   -0.3,  999.0,   -0.2,  999.0,   -0.0,    0.3,    0.2,   -0.0,   -0.5,   -0.5,   -0.3,   -0.4,   -0.6,   -0.6,   -0.5,   -0.5,  999.0,  999.0,  999.0,  999.0,  999.0,  999.0,  999.0,  999.0,  999.0,  999.0,  999.0,  999.0,  999.0,  999.0,  999.0,  999.0,  999.0,  999.0,  999.0,  999.0,  999.0,  999.0,  999.0,  999.0,  999.0,  999.0
2000/01/12 17:00,   -0.2,   -0.7,   -0.5,   -0.5,  999.0,   -0.3,  999.0,   -0.1,  999.0,  999.0,  999.0,   -0.7,   -0.8,   -0.8,   -0.7,   -0.5,   -0.8,   -0.8,   -0.7,   -0.6,   -0.5,   -0.2,  999.0,  999.0,  999.0,  999.0,  999.0,  999.0,  999.0,  999.0,  999.0,  999.0,  999.0,  999.0,  999.0,  999.0,  999.0,  999.0,  999.0,  999.0,  999.0,  999.0,  999.0,  999.0,  999.0,  999.0,  999.0
2000/01/12 17:10,   -0.3,   -0.6,   -0.5,   -0.6,  999.0,   -0.3,   -0.1,   -0.3,   -0.4,   -0.3,   -0.9,   -1.0,   -1.2,   -0.9,   -1.0,   -0.9,   -1.2,   -0.7,   -0.8,   -0.6,   -0.4,   -0.2,   -0.3,  999.0,  999.0,  999.0,  999.0,  999.0,  999.0,  999.0,  999.0,  999.0,  999.0,  999.0,  999.0,  999.0,  999.0,  999.0,  999.0,  999.0,  999.0,  999.0,  999.0,  999.0,  999.0,  999.0,  999.0
2000/01/12 17:20,   -0.4,   -0.5,  999.0,   -0.6,   -0.5,   -0.2,   -0.2,   -0.2,   -0.8,   -0.6,   -0.9,   -1.0,   -1.2,   -1.1,   -1.0,   -1.0,   -1.0,   -0.9,   -0.9,   -0.6,   -0.3,   -0.2,  999.0,  999.0,  999.0,  999.0,  999.0,  999.0,  999.0,  999.0,  999.0,  999.0,  999.0,  999.0,   -0.7,   -0.4,   -0.6,   -0.5,   -0.5,  999.0,  999.0,  999.0,  999.0,  999.0,  999.0,  999.0,  999.0
2000/01/12 17:30,   -0.4,  999.0,   -0.6,   -0.7,   -0.8,   -0.9,   -0.4,   -1.0,   -0.9,   -0.9,   -0.8,   -1.1,   -1.3,   -1.3,   -1.2,   -1.1,   -1.0,   -0.9,   -0.8,   -0.5,   -0.1,   -0.0,  999.0,  999.0,  999.0,  999.0,  999.0,  999.0,  999.0,  999.0,  999.0,  999.0,  999.0,  999.0,  999.0,  999.0,   -0.6,   -0.4,   -0.5,  999.0,  999.0,  999.0,  999.0,  999.0,  999.0,  999.0,  999.0
2000/01/12 17:40,   -0.3,   -0.8,   -0.9,   -0.8,   -0.8,   -0.6,   -0.3,   -1.1,   -1.4,   -1.3,   -1.5,   -1.6,   -1.6,   -1.7,   -1.5,   -1.4,   -1.3,   -1.1,   -0.9,   -0.4,   -0.3,   -0.1,  999.0,  999.0,  999.0,  999.0,  999.0,  999.0,  999.0,  999.0,  999.0,  999.0,  999.0,  999.0,  999.0,  999.0,  999.0,  999.0,  999.0,   -0.1,   -0.3,  999.0,  999.0,  999.0,  999.0,  999.0,  999.0
2000/01/12 17:50,   -2.0,   -3.3,   -4.0,   -4.2,   -4.1,   -2.6,   -1.6,   -1.7,   -1.8,   -1.9,   -1.8,   -1.6,   -1.8,   -1.7,   -1.4,   -1.5,   -1.4,   -1.0,   -0.8,   -0.4,    0.1,  999.0,  999.0,  999.0,  999.0,  999.0,  999.0,  999.0,  999.0,  999.0,  999.0,  999.0,  999.0,  999.0,  999.0,  999.0,  999.0,  999.0,  999.0,  999.0,  999.0,  999.0,  999.0,  999.0,  999.0,  999.0,  999.0
2000/01/12 18:00,   -3.7,   -3.8,   -4.2,   -4.2,   -4.6,   -2.9,   -2.4,   -2.1,   -2.0,   -2.0,   -2.0,   -2.0,   -1.9,   -1.8,   -1.8,   -1.6,   -1.2,   -1.0,   -0.5,   -0.2,    0.1,    0.1,  999.0,  999.0,  999.0,  999.0,  999.0,  999.0,  999.0,  999.0,  999.0,  999.0,  999.0,  999.0,  999.0,  999.0,  999.0,  999.0,  999.0,  999.0,  999.0,  999.0,  999.0,  999.0,  999.0,  999.0,  999.0
2000/01/12 18:10,   -4.9,   -5.3,   -5.3,   -5.1,   -4.7,   -3.7,   -2.8,   -2.6,   -2.3,   -2.0,   -2.0,   -2.1,   -2.0,   -1.9,   -1.6,   -1.3,   -1.0,   -0.9,   -0.8,   -0.5,   -0.2,   -0.1,  999.0,  999.0,  999.0,  999.0,  999.0,  999.0,  999.0,  999.0,  999.0,  999.0,  999.0,  999.0,  999.0,  999.0,  999.0,  999.0,  999.0,  999.0,  999.0,  999.0,  999.0,  999.0,  999.0,  999.0,  999.0
2000/01/12 18:20,   -5.2,   -5.6,   -5.8,   -5.9,   -4.8,   -3.4,   -2.8,   -2.3,   -2.0,   -1.8,   -1.9,   -2.1,   -1.8,   -2.0,   -1.6,   -1.4,   -1.2,   -0.9,   -0.7,   -0.5,   -0.2,    0.1,  999.0,  999.0,  999.0,  999.0,  999.0,  999.0,  999.0,  999.0,  999.0,  999.0,  999.0,  999.0,  999.0,  999.0,  999.0,  999.0,  999.0,  999.0,  999.0,  999.0,  999.0,  999.0,  999.0,  999.0,  999.0
2000/01/12 18:30,   -5.1,   -5.4,   -5.1,   -4.9,   -4.4,   -2.9,   -2.3,   -2.2,   -1.9,   -1.6,   -1.9,   -2.0,   -2.3,   -2.0,   -1.9,  999.0,   -1.5,   -1.1,   -0.8,   -0.5,   -0.3,  999.0,  999.0,  999.0,  999.0,  999.0,  999.0,  999.0,  999.0,  999.0,  999.0,  999.0,  999.0,  999.0,  999.0,  999.0,  999.0,  999.0,  999.0,  999.0,  999.0,  999.0,  999.0,  999.0,  999.0,  999.0,  999.0
2000/01/12 18:40,   -3.1,   -4.0,   -3.7,   -4.2,   -4.2,   -2.6,   -1.2,   -1.1,   -1.5,   -1.5,   -1.9,   -1.5,   -1.6,   -1.7,   -1.6,   -1.5,   -1.5,   -1.3,   -1.0,   -0.6,   -0.3,  999.0,  999.0,  999.0,  999.0,  999.0,  999.0,  999.0,  999.0,  999.0,  999.0,  999.0,  999.0,  999.0,  999.0,  999.0,  999.0,  999.0,  999.0,  999.0,  999.0,  999.0,  999.0,  999.0,  999.0,  999.0,  999.0
2000/01/12 18:50,   -3.9,   -4.0,   -4.5,   -4.7,   -4.5,   -2.6,   -1.4,   -1.5,   -1.3,   -1.3,   -1.6,   -1.7,   -1.7,   -1.8,   -1.7,   -1.7,   -1.6,   -1.3,   -0.8,   -0.4,   -0.2,    0.0,  999.0,  999.0,  999.0,  999.0,  999.0,  999.0,  999.0,  999.0,  999.0,  999.0,  999.0,  999.0,  999.0,  999.0,  999.0,  999.0,  999.0,  999.0,  999.0,  999.0,  999.0,  999.0,  999.0,  999.0,  999.0
2000/01/12 19:00,   -4.3,   -4.7,   -4.5,   -4.7,   -4.2,   -2.6,   -1.2,   -1.3,   -1.1,   -0.8,   -1.1,   -1.1,   -1.0,  999.0,   -1.0,   -1.0,   -1.0,   -1.0,   -0.9,   -0.7,   -0.4,   -0.3,   -0.3,  999.0,  999.0,  999.0,  999.0,  999.0,  999.0,  999.0,  999.0,  999.0,   -0.1,   -0.2,  999.0,  999.0,  999.0,  999.0,  999.0,  999.0,  999.0,  999.0,  999.0,  999.0,  999.0,  999.0,  999.0
2000/01/12 19:10,   -5.3,   -5.2,   -4.8,   -4.4,   -3.9,   -2.6,   -1.3,   -1.1,   -0.7,   -0.7,   -1.2,   -1.2,   -1.3,   -1.3,  999.0,  999.0,   -1.0,   -0.9,   -0.9,   -0.7,   -0.4,   -0.6,   -1.0,  999.0,  999.0,  999.0,  999.0,  999.0,  999.0,  999.0,  999.0,   -0.1,   -0.1,   -0.3,   -0.2,  999.0,  999.0,  999.0,  999.0,  999.0,  999.0,  999.0,  999.0,  999.0,  999.0,  999.0,  999.0
2000/01/12 19:20,   -4.2,   -4.0,   -4.1,   -3.8,   -3.3,   -2.3,   -1.2,   -0.8,   -0.7,  999.0,   -1.0,   -1.0,   -1.3,   -1.3,   -1.3,   -1.4,   -1.3,   -1.2,   -1.0,   -0.6,   -0.3,   -0.2,  999.0,  999.0,  999.0,  999.0,  999.0,  999.0,  999.0,  999.0,   -0.0,   -0.4,   -0.5,   -0.4,   -0.3,   -0.4,  999.0,  999.0,  999.0,  999.0,  999.0,  999.0,  999.0,  999.0,  999.0,  999.0,  999.0
2000/01/12 19:30,   -2.6,   -2.6,   -2.6,   -3.0,   -2.7,   -2.5,   -1.0,   -0.6,   -0.7,   -0.9,   -1.1,   -1.1,   -1.2,   -1.2,   -1.0,   -0.9,   -0.8,   -0.8,   -0.6,   -0.2,    0.1,    0.0,  999.0,  999.0,  999.0,  999.0,  999.0,  999.0,  999.0,   -0.1,   -0.0,   -0.1,   -0.3,   -0.1,  999.0,  999.0,  999.0,  999.0,  999.0,  999.0,  999.0,  999.0,  999.0,  999.0,  999.0,  999.0,  999.0
2000/01/12 19:40,   -2.6,   -2.8,   -2.5,   -2.4,   -1.1,   -1.1,   -1.1,   -0.6,   -0.8,   -0.8,   -0.9,   -1.0,   -0.8,   -1.1,   -1.1,   -1.0,   -0.9,   -0.9,   -0.7,   -0.4,   -0.0,   -0.1,  999.0,  999.0,  999.0,  999.0,  999.0,    0.0,  999.0,  999.0,   -0.3,   -0.2,   -0.1,   -0.1,   -0.3,  999.0,  999.0,  999.0,  999.0,  999.0,  999.0,  999.0,  999.0,  999.0,  999.0,  999.0,  999.0
2000/01/12 19:50,   -3.0,   -3.1,   -3.0,   -3.1,   -2.6,   -3.0,   -1.2,   -0.6,   -0.5,   -0.8,   -0.9,   -1.0,   -0.9,   -1.0,   -0.8,   -0.9,   -1.0,   -1.0,   -0.7,   -0.5,   -0.1,   -0.1,  999.0,  999.0,  999.0,  999.0,  999.0,  999.0,  999.0,  999.0,   -0.3,   -0.3,   -0.2,   -0.2,   -0.1,   -0.1,  999.0,  999.0,  999.0,  999.0,  999.0,  999.0,  999.0,  999.0,  999.0,  999.0,  999.0
2000/01/12 20:00,   -3.6,   -3.7,   -3.8,   -3.8,   -3.5,   -3.7,   -1.6,   -0.8,   -0.7,   -0.7,   -0.8,  999.0,   -0.9,   -0.9,   -0.8,   -0.8,   -0.9,   -0.7,   -0.6,   -0.3,    0.0,   -0.1,   -0.1,  999.0,  999.0,  999.0,  999.0,   -0.0,   -0.2,   -0.2,   -0.4,   -0.3,   -0.2,   -0.1,  999.0,  999.0,  999.0,  999.0,  999.0,  999.0,  999.0,  999.0,  999.0,  999.0,  999.0,  999.0,  999.0
2000/01/12 20:10,   -3.5,   -4.5,   -4.2,   -4.4,   -4.3,   -4.0,   -2.4,   -0.9,   -0.8,   -0.9,   -1.0,   -0.9,   -0.8,   -0.8,   -0.8,   -0.9,   -1.0,   -1.0,   -0.8,   -0.6,   -0.1,   -0.0,  999.0,  999.0,  999.0,  999.0,  999.0,   -0.0,   -0.0,   -0.3,   -0.5,   -0.4,   -0.3,  999.0,  999.0,  999.0,  999.0,  999.0,  999.0,  999.0,  999.0,  999.0,  999.0,  999.0,  999.0,  999.0,  999.0
2000/01/12 20:20,   -4.3,   -4.1,   -3.9,   -3.9,   -3.9,   -3.7,   -2.4,   -1.2,   -1.0,   -0.9,   -1.0,   -0.6,   -0.8,   -1.0,   -0.8,   -0.9,   -1.0,   -1.0,   -0.9,   -0.6,   -0.3,   -0.3,  999.0,  999.0,  999.0,  999.0,    0.2,    0.0,    0.1,   -0.6,   -0.4,   -0.4,   -0.4,  999.0,  999.0,  999.0,  999.0,  999.0,  999.0,  999.0,  999.0,  999.0,  999.0,  999.0,  999.0,  999.0,  999.0
2000/01/12 20:30,   -3.8,   -3.9,   -4.0,   -4.1,   -3.9,   -3.7,   -2.8,   -1.2,   -1.1,   -1.1,   -0.9,   -0.8,   -1.1,   -0.9,   -0.8,   -0.8,   -0.8,   -0.7,   -0.5,   -0.3,   -0.2,   -0.1,   -0.2,  999.0,  999.0,  999.0,    0.3,    0.2,    0.2,  999.0,   -0.5,   -0.7,   -0.4,  999.0,  999.0,  999.0,  999.0,  999.0,  999.0,  999.0,  999.0,  999.0,  999.0,  999.0,  999.0,  999.0,  999.0
2000/01/12 20:40,   -4.2,   -4.4,   -4.5,   -4.4,   -3.9,   -3.6,   -2.9,   -1.2,   -1.1,   -1.0,   -1.1,  999.0,  999.0,   -1.1,   -1.0,   -0.9,  999.0,  999.0,  999.0,   -0.4,   -0.3,   -0.1,   -0.3,  999.0,  999.0,   -0.1,  999.0,    0.0,   -0.4,   -0.6,   -0.7,   -0.6,   -0.7,  999.0,  999.0,  999.0,  999.0,  999.0,  999.0,  999.0,  999.0,  999.0,  999.0,  999.0,  999.0,  999.0,  999.0
2000/01/12 20:50,   -5.0,   -4.9,   -5.0,   -4.9,   -4.5,   -4.1,   -3.5,   -1.5,   -1.1,   -1.0,   -1.0,  999.0,  999.0,  999.0,  999.0,  999.0,   -0.7,   -0.6,   -0.5,   -0.4,   -0.3,    0.0,   -0.1,   -0.4,    0.0,    0.1,   -0.2,   -0.3,   -0.5,   -0.5,   -0.4,   -0.4,  999.0,  999.0,  999.0,  999.0,  999.0,  999.0,  999.0,  999.0,  999.0,  999.0,  999.0,  999.0,  999.0,  999.0,  999.0
2000/01/12 21:00,   -5.3,   -5.3,   -5.0,   -4.8,   -4.7,   -4.6,   -3.9,   -1.1,   -0.9,   -1.0,   -1.0,  999.0,   -0.9,   -0.8,   -0.7,   -1.0,   -1.2,   -1.0,   -0.9,   -0.7,   -0.4,   -0.3,    0.1,    0.1,   -0.0,   -0.5,   -1.0,   -0.7,   -0.6,   -0.6,   -0.6,   -0.4,  999.0,  999.0,  999.0,  999.0,  999.0,  999.0,  999.0,  999.0,  999.0,  999.0,  999.0,  999.0,  999.0,  999.0,  999.0
2000/01/12 21:10,   -5.4,   -5.2,   -5.2,   -5.3,   -5.2,   -4.8,   -3.0,   -1.5,   -1.4,   -1.2,   -1.2,   -1.1,   -1.1,   -1.3,   -1.5,   -1.1,   -0.9,   -0.6,   -0.5,   -0.5,   -0.9,   -0.6,   -0.1,   -0.0,    0.3,    0.4,   -0.1,   -0.1,   -0.2,   -0.2,   -0.1,   -0.1,   -0.2,  999.0,  999.0,  999.0,  999.0,  999.0,  999.0,  999.0,  999.0,  999.0,  999.0,  999.0,  999.0,  999.0,  999.0
2000/01/12 21:20,   -6.0,   -6.1,   -6.4,   -6.5,   -6.4,   -5.8,   -3.2,   -1.7,   -1.4,   -1.6,   -1.7,   -1.8,   -1.8,   -1.5,   -1.5,   -1.4,   -1.1,   -0.8,   -0.7,   -0.7,   -0.8,   -0.4,    0.1,    0.6,  999.0,   -0.3,   -0.4,   -0.2,   -0.3,   -0.4,   -0.3,   -0.1,  999.0,  999.0,  999.0,  999.0,  999.0,  999.0,  999.0,  999.0,  999.0,  999.0,  999.0,  999.0,  999.0,  999.0,  999.0
2000/01/12 21:30,   -5.6,   -5.4,   -5.0,   -4.9,   -5.8,   -6.1,   -4.1,   -1.9,   -1.4,   -1.6,   -1.7,   -1.6,  999.0,   -1.5,  999.0,   -1.3,   -0.8,   -0.4,   -0.5,  999.0,  999.0,   -0.3,   -0.2,   -0.1,    0.0,  999.0,    0.2,    0.1,   -0.2,   -0.3,   -0.2,  999.0,  999.0,  999.0,  999.0,  999.0,  999.0,  999.0,  999.0,  999.0,  999.0,  999.0,  999.0,  999.0,  999.0,  999.0,  999.0
2000/01/12 21:40,   -3.7,   -3.3,   -3.3,   -3.0,   -2.8,   -3.3,   -3.2,   -1.0,   -0.7,   -0.7,   -0.6,   -0.5,   -1.1,   -1.0,   -0.8,   -0.5,   -0.6,   -0.8,   -0.9,   -0.8,   -0.6,   -0.3,   -0.2,   -0.1,   -0.0,  999.0,   -0.1,   -0.3,   -0.3,   -0.6,   -0.5,   -0.3,  999.0,  999.0,  999.0,  999.0,  999.0,  999.0,  999.0,  999.0,  999.0,  999.0,   -0.4,  999.0,  999.0,  999.0,  999.0
2000/01/12 21:50,   -2.8,   -2.5,   -2.9,   -1.6,   -0.2,   -3.1,   -2.8,   -0.9,   -0.5,   -0.4,   -0.4,   -0.3,   -0.1,    0.3,   -0.2,   -0.3,   -0.2,   -0.2,   -0.2,   -0.2,   -0.0,   -0.1,   -0.2,   -0.4,   -0.3,   -0.1,   -0.1,   -0.2,   -0.8,  999.0,   -0.7,    0.1,  999.0,  999.0,  999.0,  999.0,  999.0,  999.0,  999.0,  999.0,  999.0,  999.0,  999.0,  999.0,  999.0,  999.0,  999.0
2000/01/12 22:00,   -1.0,   -1.1,   -2.8,   -1.8,   -0.4,   -1.7,   -1.5,   -0.2,   -0.2,   -0.2,   -0.3,   -0.1,  999.0,    0.1,    0.0,   -0.1,   -0.2,   -0.2,   -0.2,   -0.2,   -0.2,   -0.3,   -0.3,  999.0,   -0.1,   -0.0,   -0.1,   -0.2,  999.0,   -0.6,   -0.4,   -0.4,  999.0,  999.0,  999.0,  999.0,  999.0,  999.0,  999.0,  999.0,  999.0,  999.0,  999.0,  999.0,  999.0,  999.0,  999.0
2000/01/12 22:10,  999.0,   -0.3,   -0.4,   -0.6,   -0.8,   -0.5,   -0.1,   -0.1,   -0.2,   -0.0,    0.0,  999.0,    0.0,    0.1,    0.1,  999.0,    0.0,    0.1,    0.1,   -0.1,   -0.0,  999.0,   -0.1,   -0.2,   -0.1,   -0.3,   -0.5,   -0.8,   -0.7,   -0.7,   -0.5,   -0.5,   -0.5,   -0.7,   -0.6,   -0.4,  999.0,  999.0,  999.0,  999.0,  999.0,  999.0,  999.0,  999.0,  999.0,  999.0,  999.0
2000/01/12 22:20,  999.0,   -0.6,   -0.6,   -0.7,   -0.7,   -0.3,   -0.0,    0.2,    0.1,    0.2,  999.0,   -0.0,  999.0,  999.0,  999.0,    0.0,   -0.1,   -0.0,   -0.1,    0.0,    0.0,    0.1,  999.0,  999.0,   -0.5,   -0.5,   -0.5,   -0.6,   -0.4,   -0.4,   -0.4,   -0.4,   -0.5,   -0.4,   -0.5,  999.0,  999.0,  999.0,  999.0,  999.0,  999.0,  999.0,  999.0,  999.0,  999.0,  999.0,  999.0
2000/01/12 22:30,  999.0,   -0.4,   -0.6,   -0.6,   -0.7,   -0.3,    0.1,    0.3,    0.2,   -0.0,   -0.2,  999.0,  999.0,    0.1,    0.1,    0.2,    0.1,  999.0,  999.0,    0.0,   -0.0,   -0.0,   -0.5,   -0.7,   -0.8,   -0.9,   -0.7,   -0.6,   -0.5,   -0.6,   -0.6,   -0.6,   -0.7,   -0.7,   -0.5,   -0.5,  999.0,  999.0,  999.0,   -0.8,  999.0,  999.0,  999.0,  999.0,  999.0,  999.0,  999.0
2000/01/12 22:40,  999.0,   -0.5,   -0.6,   -0.8,   -0.6,   -0.1,    0.1,    0.1,    0.1,   -0.0,    0.1,    0.0,    0.1,    0.1,  999.0,  999.0,    0.1,  999.0,  999.0,  999.0,  999.0,   -0.3,   -0.5,   -0.6,   -0.6,   -0.6,   -0.6,   -0.6,   -0.6,   -0.6,   -0.6,   -0.6,   -0.5,   -0.5,   -0.5,   -0.5,   -0.6,   -0.4,   -0.1,  999.0,  999.0,  999.0,  999.0,  999.0,  999.0,  999.0,  999.0
2000/01/12 22:50,  999.0,   -0.4,   -0.4,   -0.5,   -0.5,   -0.1,    0.2,    0.3,    0.1,   -0.1,   -0.3,    0.1,   -0.2,    0.4,  999.0,    0.2,   -0.0,    0.1,   -0.0,    0.0,   -0.3,   -0.7,   -0.6,   -0.6,   -0.6,   -0.6,   -0.6,   -0.6,   -0.7,   -0.5,   -0.5,   -0.4,   -0.4,   -0.4,   -0.4,   -0.4,   -0.4,   -0.3,   -0.3,  999.0,  999.0,  999.0,  999.0,  999.0,  999.0,  999.0,  999.0
2000/01/12 23:00,  999.0,   -0.3,   -0.5,   -0.7,   -0.7,   -0.2,   -0.1,   -0.1,   -0.1,   -0.1,   -0.3,   -0.2,   -0.0,    0.2,   -0.2,   -0.2,   -0.3,   -0.4,   -0.6,   -0.7,   -0.9,   -0.9,   -0.8,   -0.7,   -0.6,   -0.5,   -0.5,   -0.5,   -0.5,   -0.5,   -0.5,   -0.5,   -0.5,   -0.3,   -0.5,   -0.4,   -0.3,   -0.3,   -0.2,   -0.1,   -0.1,   -0.0,  999.0,  999.0,  999.0,  999.0,  999.0
2000/01/12 23:10,  999.0,   -0.2,   -0.3,   -0.4,   -0.3,    0.1,    0.4,    0.2,    0.1,   -0.0,    0.2,  999.0,    0.2,    0.1,   -0.3,   -0.6,   -1.0,   -1.0,   -1.0,   -1.0,   -0.9,   -1.0,   -1.0,   -0.9,   -0.6,   -0.6,   -0.5,   -0.5,   -0.5,   -0.4,   -0.4,   -0.4,   -0.4,   -0.5,   -0.4,   -0.3,   -0.3,   -0.3,   -0.3,   -0.2,   -0.1,   -0.0,   -0.3,  999.0,  999.0,  999.0,  999.0
2000/01/12 23:20,  999.0,   -0.2,   -0.3,   -0.3,   -0.3,    0.0,    0.3,    0.3,    0.1,    0.0,   -0.1,    0.1,   -0.1,   -0.1,   -0.7,   -0.9,   -0.8,   -1.0,   -1.0,   -1.0,   -1.0,   -1.0,   -1.0,   -0.9,   -0.8,   -0.8,   -0.8,   -0.8,   -0.7,   -0.6,   -0.5,   -0.5,   -0.4,   -0.3,   -0.2,   -0.2,   -0.2,   -0.2,   -0.1,   -0.3,   -0.1,  999.0,  999.0,  999.0,  999.0,  999.0,  999.0
2000/01/12 23:30,   -0.0,   -0.3,   -0.5,   -0.5,   -0.4,    0.1,  999.0,  999.0,    0.3,  999.0,    0.1,    0.2,   -0.2,    0.0,  999.0,  999.0,  999.0,   -0.8,   -0.8,   -0.9,   -0.9,   -0.9,   -0.9,   -0.9,   -0.8,   -0.7,   -0.7,   -0.7,   -0.6,   -0.5,   -0.4,   -0.4,   -0.4,   -0.3,   -0.2,   -0.4,   -0.5,   -0.2,   -0.1,   -0.1,   -0.1,  999.0,  999.0,  999.0,  999.0,  999.0,  999.0
2000/01/12 23:40,    0.0,   -0.1,   -0.2,   -0.2,   -0.1,    0.3,  999.0,    0.3,    0.2,    0.0,  999.0,  999.0,    0.1,    0.0,  999.0,    0.0,   -0.2,   -0.6,   -0.8,   -1.0,   -0.9,  999.0,   -1.0,   -1.0,   -0.8,   -0.8,   -0.7,   -0.6,   -0.6,   -0.5,   -0.4,   -0.3,   -0.3,   -0.3,   -0.3,   -0.2,   -0.3,   -0.2,   -0.2,   -0.2,   -0.0,  999.0,  999.0,  999.0,  999.0,  999.0,  999.0
2000/01/12 23:50,   -0.3,    0.1,    0.1,    0.0,  999.0,  999.0,    0.3,    0.2,    0.2,  999.0,    0.0,    0.0,    0.1,    0.1,   -0.2,  999.0,  999.0,  999.0,  999.0,  999.0,   -0.8,   -0.9,   -0.9,   -0.8,   -0.7,   -0.8,   -0.7,   -0.7,   -0.7,   -0.5,   -0.5,   -0.4,   -0.4,   -0.4,   -0.3,   -0.1,   -0.0,   -0.0,   -0.0,   -0.1,   -0.2,   -0.2,  999.0,  999.0,  999.0,  999.0,  999.0
